SCP
1 1 1 0 0 0 0 0 0 0 0 0 0 0 0 0 0 0 0 0 0 1 1 1 1 1 1 0 0 1 1 1 1 1 0 0 0 0 0 1 1 1 1 1 1 1 1 1 1
1 1 1 0 0 0 0 0 0 0 0 0 0 0 0 0 0 0 0 0 0 1 1 1 1 1 1 0 0 0 1 1 1 1 0 0 0 0 0 0 1 1 1 1 1 1 1 1 1
2 1 1 0 0 0 0 0 0 0 0 0 0 0 0 0 0 0 0 0 0 1 1 1 1 1 1 0 0 0 1 1 0 0 0 0 0 0 0 0 0 1 1 1 1 1 1 1 1
2 2 1 0 0 0 0 0 0 0 0 0 0 0 0 0 0 0 0 0 1 1 1 1 1 1 1 1 0 0 0 0 0 0 0 0 0 0 0 0 0 0 1 1 1 1 1 1 1
2 2 1 0 0 0 0 0 0 0 1 1 0 0 0 0 0 0 1 1 1 1 1 1 1 1 1 1 1 0 0 0 0 0 0 0 0 0 0 0 0 0 1 1 1 1 1 1 1
2 1 1 0 0 0 1 1 1 1 1 1 1 0 0 0 0 1 1 1 1 1 1 1 1 1 1 1 1 0 0 0 0 0 0 0 0 0 0 0 0 0 0 0 1 1 1 1 1
1 1 0 0 0 0 1 1 1 1 1 1 0 0 0 0 0 1 1 1 1 1 1 1 1 1 1 1 0 0 0 0 0 0 0 0 0 0 0 0 0 0 0 0 1 1 1 1 1
1 1 0 0 0 0 1 1 1 1 1 1 0 0 0 0 0 1 1 1 1 1 1 1 0 0 0 0 0 0 0 0 0 0 0 0 0 0 0 0 0 0 0 0 1 1 1 1 1
1 1 0 0 0 0 0 0 0 0 0 1 1 0 0 1 1 1 1 1 1 1 1 1 0 0 0 0 0 0 0 0 0 0 0 0 0 0 0 0 0 0 0 0 1 1 1 1 1
1 1 0 0 0 0 0 0 0 0 0 0 1 1 1 1 1 1 1 2 1 1 1 1 0 0 0 0 0 0 0 0 0 0 0 0 0 0 0 0 0 0 0 0 0 0 1 1 1
1 1 0 0 1 1 1 0 0 0 0 0 1 1 1 1 1 1 1 2 1 1 1 1 1 0 0 0 0 0 0 0 0 0 0 0 0 0 0 1 1 1 1 0 0 0 0 1 1
1 0 0 0 1 1 1 0 0 0 0 0 0 1 1 1 1 1 1 1 1 1 1 1 1 1 0 0 0 0 0 0 0 0 0 0 0 0 0 1 1 1 0 1 0 0 0 1 1
0 0 0 0 0 1 1 0 0 0 0 0 0 0 1 1 1 1 1 1 1 1 1 1 1 1 1 1 1 1 1 0 0 0 0 0 0 0 0 1 1 1 0 0 1 0 0 0 1
0 0 0 0 0 0 0 0 0 0 0 0 0 0 1 1 0 0 1 1 1 1 1 1 1 1 1 1 1 1 1 1 0 0 0 0 0 0 0 1 1 1 0 0 0 0 0 0 0
0 0 0 0 0 0 0 0 0 0 0 0 0 0 1 0 0 0 1 1 1 1 1 1 1 1 1 1 1 1 1 1 0 0 0 0 0 0 0 1 1 1 1 0 0 0 0 0 0
0 0 0 0 0 0 0 0 0 0 0 0 0 0 0 0 0 0 0 1 1 1 1 1 1 1 1 1 1 1 1 0 0 0 0 0 0 0 0 1 1 1 1 1 1 0 0 0 0
0 0 0 0 0 0 0 0 0 0 0 0 0 0 0 0 0 0 1 1 1 1 1 1 1 1 1 1 1 0 0 0 0 0 0 0 0 0 0 1 1 1 1 1 1 1 1 1 1
0 0 0 0 0 0 0 0 0 0 0 0 0 0 0 0 0 1 1 1 1 1 1 1 1 1 1 0 0 0 0 0 0 0 0 0 0 0 0 0 1 1 1 1 1 1 1 1 1
0 0 0 0 0 0 0 0 0 0 0 0 0 0 0 0 0 0 1 1 1 1 1 1 1 1 0 0 0 0 0 0 0 0 0 0 0 0 0 0 1 1 1 1 1 0 1 0 0
0 0 0 0 0 0 0 0 0 0 0 0 0 0 0 0 0 0 1 1 1 2 1 1 1 1 0 0 0 0 0 0 0 0 0 0 0 0 0 0 0 1 1 1 0 0 0 0 0
0 0 0 0 0 0 0 0 0 0 0 0 0 0 0 0 0 0 1 1 2 2 2 1 1 1 0 0 0 0 0 0 0 0 0 0 0 0 0 0 0 0 1 0 0 0 0 0 0
0 0 0 0 0 0 0 0 0 0 0 0 0 0 0 0 0 1 1 1 1 2 1 1 1 1 1 1 0 0 0 0 0 0 0 0 0 0 0 0 0 0 0 0 0 0 0 0 0
0 0 0 0 0 0 0 0 0 0 0 0 0 0 0 0 0 0 1 1 1 1 1 1 1 1 1 1 1 1 0 0 0 0 0 0 0 0 0 0 0 0 0 0 0 0 0 0 0
0 0 0 0 0 0 0 0 0 0 0 0 0 0 0 0 0 0 0 0 1 1 1 1 1 1 1 1 1 1 1 0 0 0 0 0 0 0 0 0 0 0 0 0 0 0 0 0 0
0 0 0 0 0 0 0 0 0 0 0 0 0 0 0 0 0 0 0 0 0 1 1 0 0 1 1 1 1 1 1 1 0 0 0 0 0 0 0 0 0 0 0 0 0 0 0 0 1
0 0 0 0 0 0 0 0 0 0 0 0 0 0 0 0 0 0 0 0 0 0 0 0 0 0 0 0 0 1 1 1 0 0 0 0 0 0 0 0 0 0 0 0 0 0 0 0 1
0 0 0 0 0 0 0 0 0 0 0 0 0 0 0 0 0 0 0 0 0 0 0 0 0 0 0 0 0 0 0 0 0 0 0 0 0 0 0 0 0 0 0 0 0 0 0 0 0
0 0 0 0 0 0 0 0 0 0 0 0 0 0 0 0 0 0 0 0 0 0 0 0 0 0 0 0 0 0 0 0 0 0 0 0 0 0 0 0 0 0 0 0 0 0 0 0 0
0 0 0 0 0 0 0 0 0 0 0 0 0 0 0 0 0 0 0 0 0 0 0 0 0 0 0 0 0 0 0 0 0 0 0 0 0 0 0 0 0 0 0 0 0 0 0 0 0
0 0 0 0 0 0 0 0 0 0 0 0 0 0 0 0 0 0 0 0 0 0 0 0 0 0 0 0 0 0 0 0 0 0 0 0 0 0 0 0 0 0 0 0 0 0 0 0 0
Wind_Speed
6 4 3 3 5 2 3 4 2 2 2 3 3 2 4 5 5 6 6 7 9 10 10 11 9 9 9 9 8 8 8 8 8 7 7 6 6 6 5 5 4 4 4 4 3 3 3 3 3
5 3 3 4 3 2 4 3 3 3 4 3 3 3 4 6 6 8 7 8 10 10 9 10 10 9 9 9 8 8 8 8 7 7 6 6 6 6 5 5 4 4 4 4 4 3 3 3 3
5 3 3 3 1 2 4 4 3 4 3 2 3 3 4 6 6 7 9 11 10 10 9 11 9 9 9 8 8 8 8 7 6 6 5 5 5 5 5 4 4 4 4 4 4 4 4 4 4
3 3 3 3 1 2 2 2 1 4 3 2 2 5 6 5 5 8 12 12 11 10 10 11 9 9 8 8 7 7 7 6 6 5 5 5 4 4 4 4 4 4 4 4 4 4 4 4 5
3 3 3 2 1 2 1 2 1 2 3 3 2 5 7 6 8 12 12 11 11 10 9 11 9 8 7 7 6 6 6 5 5 5 4 4 3 3 4 4 4 5 5 5 5 5 4 5 5
3 3 4 2 1 2 2 1 1 2 3 3 3 5 7 8 10 12 12 11 10 10 9 10 10 7 6 6 5 5 4 4 4 4 4 3 3 3 3 4 4 4 5 5 5 5 5 5 5
3 3 3 2 1 2 3 1 1 2 3 3 3 4 8 10 10 11 11 10 9 9 8 7 8 9 8 6 4 4 4 3 3 3 3 3 3 3 3 3 4 4 4 5 5 5 5 5 5
3 3 3 2 2 1 2 1 0 1 2 3 3 3 7 11 12 11 10 9 8 8 7 6 6 5 5 6 6 3 3 3 3 3 3 2 0 1 1 3 3 4 4 4 5 5 4 4 4
4 5 4 2 1 1 2 1 2 1 3 3 2 2 8 14 14 12 10 9 8 7 6 6 5 5 4 3 5 4 4 3 3 3 3 3 2 2 1 5 5 4 4 4 5 4 4 5 3
5 5 3 1 1 1 1 1 1 3 4 4 5 6 11 14 14 13 11 10 9 8 7 5 5 5 4 3 3 2 2 2 1 1 1 2 2 2 3 4 1 2 3 2 2 4 5 7 3
5 5 2 3 3 3 2 2 2 4 3 4 5 9 13 14 13 12 10 9 8 7 6 5 5 4 3 2 1 1 0 1 0 2 1 2 2 2 2 1 1 1 3 3 1 5 3 4 3
5 4 3 2 2 3 3 2 3 5 1 2 4 9 13 14 13 11 10 8 7 6 6 5 5 4 4 2 2 1 0 0 1 1 2 2 2 3 3 2 3 3 2 3 4 3 4 5 4
6 4 3 3 3 4 4 4 4 3 1 2 5 9 12 12 12 11 9 8 7 7 6 5 5 4 3 3 1 1 0 1 1 1 2 2 2 3 2 2 2 3 3 3 4 5 4 5 5
4 4 4 3 4 3 4 4 4 2 3 5 6 9 10 10 11 10 10 9 8 7 6 6 5 4 3 2 2 1 1 1 1 1 2 3 2 3 3 3 2 3 4 4 5 5 4 4 4
4 5 4 4 3 2 3 5 3 2 4 5 7 8 8 9 9 9 9 8 7 6 6 6 5 5 4 3 1 1 0 0 1 1 2 3 3 3 3 3 3 3 4 4 4 5 4 4 4
5 6 5 3 3 2 5 3 2 2 4 5 6 7 8 8 9 8 7 7 6 6 6 6 5 5 4 2 2 1 0 1 1 1 2 3 3 3 3 3 3 3 3 3 3 4 4 4 4
6 5 4 3 3 3 5 3 1 3 5 5 6 7 8 8 8 7 7 6 6 6 7 7 6 5 4 3 2 1 0 0 1 1 1 3 3 3 3 3 3 3 3 3 4 3 4 4 4
4 3 2 2 2 4 5 3 1 3 5 5 6 7 8 7 7 6 6 6 6 7 7 7 6 5 5 3 2 1 0 1 1 1 1 3 3 3 4 3 3 3 3 3 3 4 3 4 4
1 2 2 1 1 3 4 3 1 2 4 5 6 6 6 6 6 6 6 7 7 7 7 7 6 6 4 2 2 1 1 1 1 1 2 2 3 4 3 3 3 3 3 4 5 4 4 3 4
4 3 2 2 2 3 2 2 1 2 3 3 4 5 5 6 7 6 7 7 7 7 7 7 6 6 4 2 1 1 1 1 1 1 1 2 2 3 3 4 3 3 3 3 4 3 4 3 2
3 3 1 1 2 3 3 3 3 4 3 4 4 4 5 5 7 8 7 7 6 7 7 6 6 6 5 4 2 2 2 2 2 1 1 2 3 3 3 4 4 3 3 3 3 3 3 3 2
2 0 2 3 4 2 2 2 3 3 4 4 4 5 5 5 6 7 7 7 7 6 6 6 6 6 5 5 3 3 2 1 1 1 1 1 2 2 3 3 4 3 3 3 3 2 3 3 3
1 1 1 2 2 3 1 2 5 4 3 3 3 4 5 6 6 7 7 7 6 6 5 5 6 6 5 5 4 4 3 2 1 1 1 2 1 2 2 3 3 3 3 3 3 3 3 2 3
3 4 3 4 4 3 2 1 4 3 1 2 3 4 5 5 6 6 6 5 5 5 5 5 5 5 5 5 5 5 3 3 2 2 1 2 1 2 2 3 3 3 3 3 3 3 3 3 3
5 5 4 5 4 4 2 0 4 5 3 2 1 3 4 5 5 5 6 6 5 6 6 6 6 6 6 6 5 5 4 4 3 3 2 2 2 2 2 3 3 3 3 3 3 3 3 3 3
2 4 2 1 3 5 3 3 5 4 3 2 2 3 4 4 4 4 5 5 5 6 6 6 6 5 5 5 5 5 4 3 2 3 2 2 2 2 3 3 3 3 3 3 3 3 3 3 3
2 1 3 1 2 3 4 5 5 3 4 4 4 4 4 3 3 4 4 5 5 5 6 6 6 5 5 5 5 4 4 4 3 3 3 2 2 2 2 3 3 2 2 3 3 2 3 3 3
3 0 3 3 3 4 5 4 3 3 4 4 4 4 3 2 2 3 3 4 4 4 5 5 5 5 5 5 4 3 4 4 4 3 3 2 2 2 2 2 2 2 2 2 2 3 2 3 2
3 3 1 1 2 1 4 5 4 2 3 2 3 3 2 2 2 2 2 3 3 4 4 4 4 4 4 5 4 4 4 4 4 3 3 3 2 2 3 2 2 2 2 2 2 2 2 3 2
2 1 3 2 2 1 1 5 5 2 3 2 3 3 3 2 2 2 2 2 3 3 4 4 4 4 4 4 4 4 4 4 4 4 4 3 3 3 3 3 3 2 2 2 2 2 2 3 3
Wind_Direction
180 180 218 242 233 204 85 83 96 111 92 71 59 52 52 36 20 64 99 131 127 132 128 131 124 119 114 109 105 102 100 96 92 88 86 83 78 71 66 60 53 46 38 31 25 18 7 3 0
170 183 228 244 247 146 92 84 92 81 91 106 96 83 80 71 65 96 123 130 134 130 128 121 123 120 115 110 105 99 95 92 90 86 83 78 73 66 59 51 45 39 32 25 17 13 354 342 341
163 224 255 249 251 57 79 73 76 107 124 145 104 69 59 85 101 111 126 138 136 130 127 120 127 121 116 110 105 98 93 91 89 85 82 78 72 63 53 44 38 30 23 17 10 0 348 338 334
187 213 236 244 131 65 35 58 84 140 133 131 124 104 88 83 100 115 132 141 134 133 130 124 132 125 119 112 107 102 97 92 89 86 84 77 69 56 41 31 26 17 10 4 358 351 341 336 336
221 240 227 215 141 78 44 30 161 170 135 121 127 108 105 98 108 124 138 141 138 136 132 131 134 130 124 118 111 104 100 97 91 83 78 69 60 49 30 19 10 1 359 359 356 348 338 335 335
219 237 230 207 142 97 92 82 187 152 121 124 135 120 107 121 132 137 142 146 140 137 138 133 139 137 131 124 118 111 103 97 92 81 69 57 44 32 15 2 356 355 354 351 351 350 341 335 334
245 241 243 239 203 126 89 64 176 126 123 126 145 127 123 139 141 145 146 145 142 142 144 144 143 145 142 132 123 113 99 90 88 79 62 47 35 16 4 354 353 351 350 346 349 348 346 339 333
260 247 227 227 230 112 92 107 62 133 113 121 175 149 138 145 148 149 147 148 150 152 152 150 142 147 147 145 133 117 100 93 89 78 52 27 232 214 302 282 21 355 346 345 347 345 342 336 330
227 233 221 216 239 112 132 165 117 159 158 155 164 87 121 141 151 154 154 158 161 165 165 162 161 154 151 141 129 149 138 125 174 155 133 253 290 331 247 39 24 360 355 354 352 344 332 295 241
216 234 222 202 246 272 198 249 151 188 177 165 147 129 136 152 161 164 167 168 170 174 173 169 172 163 162 142 147 167 155 140 254 6 36 322 343 353 338 99 65 359 334 283 343 303 263 263 266
214 235 209 208 230 262 247 239 216 219 186 169 157 152 156 165 171 174 174 171 171 172 171 177 177 166 166 161 158 140 144 137 273 343 12 344 328 321 315 318 177 252 275 293 282 263 293 304 317
215 228 232 224 229 251 253 245 233 234 201 131 150 156 163 172 177 181 179 177 176 173 176 180 185 177 178 163 145 184 182 14 10 350 346 342 341 327 346 319 340 324 326 325 305 305 304 301 297
219 212 222 244 253 264 263 255 263 246 209 170 157 162 171 176 177 180 179 181 181 177 177 182 188 187 174 150 164 189 107 351 35 4 322 341 327 323 333 319 331 320 325 309 308 300 309 301 304
217 223 236 249 244 245 249 246 234 210 165 164 165 170 174 176 181 179 182 187 188 184 178 173 180 179 180 170 174 131 101 131 328 347 326 331 332 324 325 318 329 320 317 321 306 304 304 295 301
210 221 218 221 228 224 247 224 205 167 184 180 176 170 170 176 184 188 186 191 190 183 175 167 171 172 174 163 140 135 207 336 344 348 329 339 337 323 328 322 323 326 318 308 309 313 303 298 290
203 212 213 177 202 198 235 227 154 180 206 193 183 171 178 181 189 189 187 192 184 177 168 156 166 172 166 153 157 171 152 360 341 351 330 335 340 337 334 327 327 328 320 315 312 306 304 300 296
197 207 203 166 185 204 230 248 147 190 212 201 187 178 182 181 187 182 185 186 177 173 168 162 162 164 151 142 165 187 170 327 327 338 339 339 343 334 329 331 323 331 323 316 312 321 312 310 308
191 202 194 181 164 218 228 241 204 177 207 204 189 183 182 182 181 177 177 174 170 170 170 164 161 164 149 161 178 160 225 256 290 325 342 343 327 331 328 317 323 331 320 321 316 318 308 308 304
255 221 210 140 147 229 239 255 235 169 198 200 192 186 176 171 167 165 170 171 170 169 171 163 163 160 162 166 195 213 212 248 255 309 340 328 322 328 329 313 324 323 326 325 319 318 312 314 314
233 219 188 147 158 235 249 270 93 135 190 208 202 189 174 166 163 160 168 173 176 173 173 169 169 168 172 170 187 215 279 276 321 296 307 316 320 324 317 319 314 320 317 317 322 316 313 316 317
225 236 211 171 165 199 244 163 120 122 147 166 188 186 175 174 174 164 168 168 173 177 177 177 177 174 173 174 172 174 191 227 213 236 282 308 308 308 314 319 316 318 313 323 317 314 312 311 311
185 267 259 236 217 148 275 144 101 115 140 149 162 173 175 173 176 170 171 172 176 177 177 182 181 177 173 180 192 207 229 245 281 295 301 284 285 303 310 309 310 313 317 314 303 316 306 299 301
66 33 234 232 221 173 165 162 112 130 138 144 151 164 170 173 180 179 178 176 176 174 176 184 179 179 180 189 190 219 234 249 269 277 275 282 297 301 308 305 304 307 304 313 313 306 302 294 293
160 175 168 198 216 155 56 213 104 99 67 106 130 144 158 164 173 175 171 170 168 167 174 181 185 184 188 198 203 214 228 241 257 271 289 284 296 296 305 301 296 296 302 303 304 297 289 294 295
211 222 190 182 180 108 76 260 80 57 28 18 108 139 145 154 165 169 171 172 170 174 177 181 188 192 195 206 212 214 220 236 244 264 267 286 296 299 317 307 302 306 304 302 299 290 295 287 287
206 266 280 181 138 122 147 103 81 51 36 47 105 126 136 146 156 167 174 177 180 182 182 187 193 199 202 213 217 222 214 234 247 256 274 283 292 305 318 304 306 306 301 295 295 292 293 292 283
196 202 332 312 139 145 122 121 109 75 73 79 95 105 115 134 153 166 170 177 183 186 190 196 196 201 206 212 218 223 226 230 242 251 269 280 287 302 302 299 301 307 306 303 300 297 299 295 290
343 138 221 229 178 144 137 128 104 82 66 76 88 92 98 117 136 152 166 177 182 184 189 192 199 205 210 210 211 210 223 230 241 248 260 278 285 291 290 292 307 311 309 298 298 293 306 290 291
168 183 223 220 307 219 148 109 60 55 46 54 79 81 88 102 116 130 144 166 173 177 181 187 196 205 207 211 209 212 218 224 231 235 248 259 265 264 274 285 295 304 310 310 302 301 302 295 298
311 338 264 244 136 271 151 101 75 56 56 59 74 80 85 89 93 97 117 146 167 180 185 194 198 201 206 213 214 216 226 223 232 238 244 246 248 250 260 270 280 291 298 303 306 301 298 296 301